Theta_e
300 299 300 299 299 299 302 304 306 308 310 316 319 319 319 321 322 323 323 325 325 323 323 329 333 336 337 336 334 331 332 331 330 329 330 329 330 331 330 330 330 329 329 328
299 299 299 300 299 298 298 298 300 302 304 307 309 310 310 311 315 318 320 323 324 324 323 324 331 334 336 336 335 333 332 332 330 329 329 328 330 331 330 330 331 330 330 330
298 298 298 298 298 298 297 298 298 300 300 302 303 306 308 308 309 311 314 316 319 320 322 322 329 333 335 336 336 335 333 332 330 329 328 328 330 331 330 331 331 331 331 331
299 299 298 298 299 299 298 300 302 300 300 301 303 304 305 305 307 309 311 313 315 316 318 321 322 331 332 335 336 335 334 332 331 330 329 329 330 330 332 332 331 331 331 332
299 299 299 300 299 300 299 300 300 301 304 301 301 301 302 304 305 308 308 310 313 315 317 320 321 325 331 332 334 336 334 334 332 330 330 330 330 332 333 332 332 331 333 332
299 299 299 299 299 300 300 301 301 300 300 304 303 302 300 302 302 304 308 309 310 314 316 317 320 322 325 332 332 334 335 334 333 331 330 331 332 334 332 332 333 333 334 333
298 300 299 300 300 300 302 301 299 299 301 301 300 302 301 302 302 303 304 307 310 310 312 315 318 319 322 327 334 333 334 334 334 332 331 332 333 333 333 334 334 333 332 331
298 296 300 301 300 299 300 301 299 301 304 302 299 302 299 303 303 309 308 307 310 309 310 314 314 316 320 322 332 336 334 333 334 334 333 333 335 333 334 335 333 331 328 324
294 297 296 295 296 299 300 298 300 300 299 300 299 300 300 302 307 307 306 306 307 308 310 310 311 312 318 321 324 333 335 335 335 333 333 335 335 334 333 333 331 327 321 318
296 294 295 296 298 300 300 300 300 299 296 295 298 298 299 305 305 305 304 304 305 306 306 307 308 310 314 316 319 325 328 333 332 331 331 331 330 329 328 325 321 316 312 310
297 294 294 295 295 299 298 300 302 302 300 301 300 299 305 301 299 298 302 303 304 306 305 305 305 307 310 309 312 317 323 327 329 330 329 327 324 319 316 313 310 311 312 313
296 293 295 293 295 295 295 296 296 300 301 302 301 299 299 298 299 300 300 300 301 304 304 303 303 305 307 306 306 308 314 320 320 322 326 324 318 314 313 311 309 308 307 309
295 292 292 292 294 298 296 299 298 297 297 298 298 298 299 297 297 298 299 299 300 301 304 303 301 302 304 302 302 303 305 308 311 312 307 311 315 314 312 310 309 307 305 306
296 295 293 293 291 292 293 293 294 292 295 294 294 294 294 294 294 296 297 298 299 300 303 302 301 300 300 299 298 298 300 302 303 303 304 303 303 304 305 305 304 309 304 298
295 293 292 294 294 294 294 294 294 293 293 294 293 293 294 294 294 294 296 297 298 299 301 302 300 299 297 296 295 295 295 297 298 298 298 297 298 299 298 298 299 295 294 293
295 295 294 294 294 294 295 294 293 294 294 294 294 294 294 294 295 295 296 297 298 300 300 301 300 297 296 294 293 292 292 293 294 294 292 293 294 294 293 293 292 294 293 290
294 294 292 294 294 294 293 292 291 292 292 293 294 295 295 295 296 298 298 298 300 302 303 300 297 296 294 292 291 290 291 291 289 289 289 291 291 292 291 292 289 288 287 287
295 293 295 293 289 289 291 293 292 293 294 295 295 296 296 297 298 298 298 299 300 302 302 298 295 293 291 289 290 289 290 289 288 287 288 288 288 288 287 287 287 287 286 287
292 294 293 290 285 292 293 296 297 294 296 295 295 296 297 296 296 296 297 298 298 299 299 296 295 290 288 288 289 289 288 289 289 288 288 288 288 286 286 285 285 285 285 285
290 292 293 287 287 286 292 297 295 297 294 296 298 297 294 296 297 296 296 298 297 293 293 290 290 288 287 287 288 289 288 287 286 286 285 286 286 285 285 285 285 284 285 284
285 286 291 291 293 290 293 292 293 293 296 298 295 294 296 297 296 295 296 293 292 291 289 289 288 288 287 287 289 290 290 289 290 287 286 285 285 285 284 284 284 284 283 283
288 286 287 286 288 290 293 292 292 294 294 294 292 294 295 295 297 297 296 292 291 290 291 290 289 288 289 292 294 288 285 285 285 285 285 284 284 285 284 284 283 282 282 282
290 292 292 292 292 292 292 291 291 291 292 291 291 291 294 296 296 294 293 292 292 291 291 292 291 288 289 291 289 286 285 284 284 283 283 283 283 283 283 283 282 282 282 282
290 290 289 289 291 291 291 291 291 291 291 290 290 290 293 297 295 294 293 292 291 291 291 291 290 288 288 287 287 287 285 284 284 283 283 282 282 282 282 282 282 283 282 282
292 290 289 290 292 291 291 291 290 290 290 289 289 291 293 294 294 294 292 290 289 289 288 289 288 287 287 287 287 286 285 284 283 283 282 282 282 282 282 282 282 282 282 282
291 291 291 292 292 292 292 292 291 289 289 289 290 290 292 293 292 291 290 290 289 288 288 287 287 287 286 286 286 285 285 285 285 284 284 284 284 283 283 282 281 280 281 281
Wind_Speed
5 5 3 8 7 10 12 11 13 16 12 6 6 9 11 10 16 14 12 14 17 12 10 28 29 29 29 27 29 31 33 34 33 30 28 27 31 28 25 23 24 23 23 21
7 3 9 11 10 8 9 10 12 15 14 10 9 13 12 16 17 16 15 14 8 7 9 10 26 30 30 30 31 30 33 34 34 31 29 27 25 28 28 27 24 24 23 22
9 6 9 9 9 10 9 9 8 10 17 13 11 16 12 16 20 19 20 18 13 11 9 9 18 28 31 28 30 33 31 32 33 26 26 23 24 22 25 27 27 26 25 24
7 6 9 9 10 9 9 10 10 7 4 5 5 8 6 11 15 21 21 20 17 15 15 12 6 21 27 31 33 31 31 32 34 32 26 27 25 24 23 25 25 26 24 26
8 12 9 10 7 6 6 10 11 13 11 8 10 7 5 10 17 14 19 24 21 20 19 16 11 12 28 34 32 32 32 31 33 35 31 29 26 23 24 23 25 24 23 26
12 12 9 6 12 10 9 10 11 10 7 6 12 11 6 10 12 8 8 7 19 20 19 19 25 23 16 28 30 31 31 34 34 36 35 30 29 24 24 25 25 28 26 24
13 3 4 3 8 7 5 5 3 2 2 5 4 11 14 12 13 6 7 7 6 7 7 6 11 10 15 16 28 32 34 31 32 36 36 34 31 30 26 25 26 24 23 21
4 6 2 3 3 6 12 5 3 5 2 10 16 6 5 12 15 2 5 6 5 8 9 8 10 16 16 21 24 29 29 27 29 29 31 34 30 27 27 24 24 24 22 18
4 4 15 13 10 6 2 3 7 8 12 5 5 11 13 15 4 2 8 15 14 13 11 11 13 18 18 2 12 23 24 27 26 29 28 26 26 27 25 24 25 25 22 20
4 7 8 9 9 8 9 7 3 3 3 4 6 9 6 10 13 14 11 8 7 8 10 9 9 16 15 11 7 7 11 19 19 24 26 23 21 22 25 27 28 29 28 25
3 3 5 8 3 7 5 5 4 4 4 5 9 5 2 4 11 9 7 6 4 3 4 5 6 14 10 9 8 5 12 20 27 26 24 24 25 26 29 31 29 25 24 19
6 3 5 9 18 17 13 14 10 3 8 6 11 13 16 14 12 16 17 14 8 5 4 3 4 10 5 5 8 7 16 25 29 32 37 33 31 33 32 30 25 21 20 19
1 4 5 9 5 5 2 3 6 8 9 10 7 7 9 19 19 16 14 9 9 5 2 4 4 5 3 3 5 7 9 19 28 33 29 40 46 38 32 28 23 18 17 16
8 4 8 10 12 10 20 20 16 3 6 14 16 25 25 23 22 22 14 14 12 7 5 4 3 3 1 2 3 4 5 13 21 26 33 34 36 36 36 32 30 28 19 16
4 7 8 14 17 18 22 23 21 18 22 15 29 24 28 24 22 16 16 19 18 10 7 5 3 4 4 4 3 3 5 12 20 26 28 29 31 32 31 30 29 27 24 19
6 11 7 17 16 18 26 26 25 27 27 20 27 31 32 25 21 21 21 20 17 8 8 6 5 5 6 7 7 8 8 8 19 25 27 30 33 32 31 30 28 26 24 22
8 3 4 14 9 13 16 16 16 14 18 17 19 27 21 21 19 15 14 14 8 5 5 5 6 6 8 9 11 11 14 15 16 21 28 32 31 30 28 29 25 27 23 23
7 2 3 9 6 5 8 7 8 14 18 13 17 17 16 15 8 10 7 6 7 5 4 6 6 10 13 15 16 18 19 21 21 21 25 28 31 30 28 27 23 25 19 19
7 3 4 3 3 15 15 4 2 1 6 9 12 7 6 7 14 21 7 9 12 10 7 12 14 17 16 18 21 24 23 24 24 20 23 23 24 27 26 25 23 21 20 18
3 4 4 1 3 6 6 4 3 1 8 5 6 4 6 16 15 14 7 5 3 12 17 19 22 18 19 21 24 25 24 22 23 19 19 20 19 22 21 21 22 20 18 18
1 3 12 10 7 8 14 11 3 3 5 2 2 5 9 15 11 13 10 6 8 11 18 21 20 18 22 23 26 23 21 20 22 19 19 18 16 18 17 18 17 17 18 18
7 5 4 3 4 10 2 4 6 4 3 3 5 6 12 14 16 13 4 7 8 8 14 17 16 19 25 22 21 17 14 18 20 20 20 19 16 16 15 17 18 17 17 17
4 7 3 9 7 7 4 8 7 7 9 9 8 13 8 9 5 4 5 5 6 10 13 15 18 19 21 19 18 19 18 20 20 20 20 18 16 15 16 15 16 17 16 15
5 7 4 3 6 14 16 12 12 12 13 11 10 9 5 5 2 2 4 3 2 7 12 16 18 17 18 18 19 19 21 20 18 17 17 16 16 15 15 14 14 13 16 14
5 5 6 11 21 23 19 11 7 9 6 10 10 6 6 5 4 6 6 7 8 13 14 18 17 16 19 21 20 21 22 21 20 17 16 15 14 14 15 13 12 11 9 8
8 8 7 9 10 6 7 3 4 8 9 7 7 6 5 5 7 6 5 5 8 11 15 16 19 21 22 23 21 21 20 20 19 18 17 16 15 14 14 13 12 11 10 10
Wind_Direction
315 299 312 1 356 334 327 321 309 304 316 353 286 311 298 282 284 284 283 233 231 232 211 190 191 194 195 201 202 195 187 191 194 193 194 200 207 211 213 211 214 212 214 218
350 325 7 337 337 328 309 303 300 297 305 314 319 294 291 286 286 284 285 290 275 253 247 202 181 184 191 200 200 200 192 190 190 199 198 200 205 212 209 214 217 216 214 215
316 344 346 328 325 309 292 276 277 290 317 314 306 285 268 266 271 280 274 276 287 293 275 262 180 181 188 194 203 203 199 192 191 196 199 199 202 210 212 217 217 218 220 217
288 345 331 317 311 318 300 352 330 296 281 264 354 290 291 305 257 245 245 262 264 274 282 284 244 186 183 192 206 205 203 198 191 194 197 200 202 203 211 211 215 219 220 218
282 329 342 323 301 351 282 356 316 305 296 270 257 277 227 225 259 265 236 238 236 241 251 261 279 205 194 195 198 206 203 199 191 195 199 200 204 207 210 215 212 218 217 224
271 267 272 275 308 302 296 298 289 261 265 256 236 230 200 214 237 243 282 277 226 229 227 242 253 263 219 199 196 199 203 203 200 199 199 201 204 204 210 207 209 208 203 207
312 332 146 305 297 244 239 294 302 302 223 240 246 222 246 301 284 286 293 297 15 7 30 274 253 234 272 213 193 199 202 201 202 196 199 205 207 205 205 207 203 181 190 192
340 323 169 109 289 302 300 260 244 302 283 312 309 260 258 227 249 350 272 242 26 10 4 15 0 344 237 219 201 196 196 202 205 198 199 206 209 208 206 201 183 177 172 162
324 259 335 306 286 293 264 266 266 280 287 272 224 291 303 292 274 248 11 32 21 6 4 2 355 343 351 354 172 198 193 197 206 210 209 198 206 206 202 181 176 166 151 137
328 298 270 295 322 261 235 269 315 239 275 261 255 248 267 32 36 23 14 16 11 359 348 345 342 339 355 359 348 180 196 188 190 196 196 186 185 176 167 162 150 142 138 138
294 218 294 333 265 278 310 276 256 282 261 272 282 259 139 87 350 326 304 317 300 279 303 320 326 326 347 345 326 262 199 183 179 187 176 171 163 157 150 140 137 139 138 150
202 259 291 265 274 270 266 281 300 297 302 286 276 267 288 306 342 332 321 309 300 255 252 295 313 310 313 334 299 238 191 181 177 173 173 163 156 149 144 144 145 145 147 145
268 263 309 318 334 14 36 305 296 301 288 264 290 275 288 308 306 304 296 300 304 292 296 289 293 290 282 274 271 266 195 170 176 171 157 152 155 154 151 145 140 136 136 131
283 230 229 254 256 301 294 286 279 214 266 279 264 270 283 282 284 286 304 315 312 298 243 231 245 251 256 283 255 243 202 163 153 149 147 140 143 149 149 148 149 146 143 136
207 257 253 259 270 276 273 271 272 259 255 251 266 269 264 269 274 291 298 293 289 286 263 232 215 198 169 162 160 172 157 152 145 136 131 130 140 142 141 138 132 130 132 130
194 270 285 279 271 273 274 269 262 259 255 251 252 264 262 282 287 275 271 274 272 263 274 210 176 163 182 161 149 130 123 116 139 130 123 130 135 136 134 131 130 130 133 141
272 253 293 280 284 309 288 261 249 256 255 251 253 255 278 271 267 266 258 265 258 272 280 188 165 165 170 150 143 125 132 133 119 115 125 130 132 131 132 131 134 133 144 138
251 279 249 289 328 260 239 274 273 279 264 252 265 270 272 279 315 313 313 300 290 258 212 159 154 136 141 144 144 136 134 127 118 113 123 130 135 133 134 134 141 133 142 126
235 231 276 258 234 282 291 312 23 8 298 240 252 274 290 323 318 288 274 274 263 224 179 148 155 144 145 137 142 133 125 129 127 127 127 134 140 142 142 141 141 137 132 130
248 203 226 5 261 260 245 129 101 236 284 219 186 283 353 327 290 278 272 304 341 107 121 122 131 137 136 139 144 133 130 130 133 139 138 140 141 146 143 137 139 139 134 132
179 245 228 238 256 270 254 260 89 121 285 43 358 303 294 291 273 281 305 64 87 113 121 127 136 138 135 147 142 134 145 151 142 154 140 140 148 143 143 140 138 136 138 137
181 167 201 189 223 265 218 109 175 233 302 245 258 260 312 296 285 260 197 129 121 118 126 127 138 128 137 145 152 145 149 150 154 155 147 149 148 147 149 150 147 144 143 147
244 201 198 196 227 239 205 232 256 284 280 285 293 298 318 319 354 45 88 114 135 139 139 142 137 128 147 154 162 162 161 157 160 157 153 151 147 159 155 154 147 150 151 159
250 237 233 50 270 254 260 275 271 267 266 276 267 267 288 295 150 69 145 132 128 152 153 156 145 138 153 163 171 172 165 164 164 161 155 161 167 160 157 163 160 159 170 173
199 158 208 255 274 279 272 268 303 301 278 294 279 210 240 290 182 189 178 162 167 172 168 165 159 164 175 175 179 178 172 170 171 169 168 172 176 175 173 172 176 180 178 184
190 210 195 231 223 230 265 251 317 311 296 283 289 268 244 197 198 177 175 186 160 165 163 157 166 169 173 178 177 177 178 180 182 182 190 196 197 198 197 192 182 191 199 193